Temp
19 19 19 20 20 20 20 21 21 21 21 21 21 21 21 21 21 22 22 22 22 21 21 21 21 21 21 21 21 20 21 23 23 21 22 26 28 28 29 29 29 29 29 29 28 28 28 29 30 30 31 31 31 27 27 28 27 27 28 27 25 26 26 27 28 28 29 29 29 28 28 29 29 30 32 31 31 32 31 31 32 32 31 31 31 30 30 30
19 19 20 20 20 21 21 21 21 21 21 21 21 21 22 22 22 22 22 22 22 22 22 21 21 21 21 21 20 20 21 21 21 21 25 28 28 28 29 29 29 29 29 29 28 28 29 30 31 32 32 32 31 28 27 28 27 26 29 28 26 28 28 28 29 29 30 29 28 28 28 29 29 29 31 31 31 32 31 31 32 31 31 31 30 30 30 30
19 19 20 20 20 20 20 21 21 21 21 21 21 22 22 22 22 22 22 22 22 22 22 21 21 21 21 20 20 20 19 19 22 25 28 29 28 28 29 29 29 29 29 29 29 29 29 31 33 33 33 33 32 28 27 28 27 27 28 28 28 30 29 29 30 29 30 29 28 28 27 28 28 28 30 30 31 32 31 31 30 30 30 30 30 30 30 30
19 19 20 20 20 20 21 21 21 21 22 22 22 22 22 22 22 22 22 22 22 22 22 22 21 21 21 20 20 20 18 20 26 29 29 29 29 29 29 29 30 29 29 29 29 29 30 31 33 34 33 33 32 28 27 28 28 28 28 29 29 30 29 29 30 29 29 29 28 27 27 27 27 27 28 30 30 31 31 31 30 30 30 30 30 30 30 30
19 19 20 20 20 20 21 21 21 22 22 22 22 22 22 22 22 22 22 22 22 22 22 22 21 21 21 20 20 19 19 24 29 30 29 29 29 29 30 30 29 29 29 28 29 29 30 31 32 33 33 33 33 29 29 30 30 30 30 31 30 30 29 29 29 29 29 28 27 27 27 27 27 27 28 29 30 31 31 32 31 31 30 30 30 30 30 30
19 19 20 20 20 21 21 21 22 22 22 22 22 22 23 23 23 22 22 22 22 22 22 22 21 21 21 21 20 18 21 26 30 30 30 30 30 30 30 29 29 29 29 28 28 29 30 32 32 33 33 33 34 32 31 31 31 31 31 31 30 30 28 27 28 28 28 27 27 27 27 27 26 27 28 28 30 31 31 32 32 31 31 31 30 30 30 30
19 19 20 20 20 21 21 21 22 22 22 22 22 23 23 23 23 22 22 22 22 23 22 22 22 21 21 20 19 19 22 27 30 30 30 30 30 30 29 29 29 29 28 28 29 30 31 32 33 33 33 33 34 34 34 34 33 31 31 30 29 28 26 26 27 27 27 27 26 27 27 27 26 27 28 28 30 30 30 32 32 32 31 31 31 30 30 30
19 19 20 20 20 21 21 22 22 22 22 22 23 23 23 23 23 22 22 22 23 23 23 22 21 21 21 20 20 22 24 27 30 30 30 30 29 29 29 29 29 28 28 28 29 31 31 32 33 34 33 34 35 35 36 36 34 32 30 30 28 26 26 27 27 26 26 26 26 26 26 27 26 27 28 29 30 30 30 32 32 32 32 31 31 31 31 31
19 19 20 20 21 21 21 22 22 22 23 23 23 23 23 23 23 22 22 22 23 23 23 22 21 21 20 18 21 25 28 30 30 30 30 30 29 29 29 29 29 28 28 29 30 31 32 33 34 34 33 34 35 35 36 35 33 32 30 29 28 26 26 26 26 25 25 25 25 26 26 26 26 26 28 29 30 29 30 32 32 32 31 31 31 31 31 31
19 19 20 20 21 21 22 22 22 23 23 23 23 23 24 24 23 23 22 23 23 23 23 22 21 21 19 19 22 26 30 31 30 30 30 29 29 29 29 29 29 29 29 30 31 32 33 33 34 35 34 34 34 35 36 35 34 32 30 29 27 27 26 25 25 25 25 24 24 25 25 25 25 25 27 29 29 29 29 32 33 32 32 31 32 32 31 31
19 20 20 20 21 21 22 22 23 23 23 23 23 24 24 24 23 23 23 23 23 23 22 22 21 21 18 20 23 27 31 31 30 30 30 30 30 29 30 30 30 30 31 31 32 33 34 34 35 35 34 34 33 34 35 35 35 32 30 29 27 27 27 26 25 24 25 24 23 24 24 24 25 25 27 28 28 28 28 31 33 32 32 32 32 32 32 32
19 20 20 20 21 22 22 23 23 23 24 24 24 24 24 24 24 23 23 23 23 22 22 21 21 20 19 21 24 28 32 32 31 31 30 31 30 30 31 31 31 31 32 32 33 34 34 35 35 34 34 34 33 34 34 35 35 33 30 28 27 28 27 26 26 24 25 24 23 24 23 23 25 26 27 27 27 28 28 30 33 32 32 32 32 32 32 31
19 20 20 20 21 22 22 23 23 23 24 24 24 24 24 24 24 23 23 23 23 22 22 21 21 19 19 24 28 31 32 32 32 32 31 31 31 31 31 31 32 32 32 32 33 33 34 34 35 34 34 33 32 33 34 35 36 35 31 28 28 27 27 28 27 25 25 24 23 24 23 23 25 26 27 26 26 28 27 29 32 32 32 32 32 32 32 31
19 20 20 21 21 22 22 23 23 24 24 24 24 25 25 24 24 23 23 23 23 22 22 22 21 19 20 26 31 32 32 32 32 32 32 32 32 32 32 32 32 32 32 32 33 33 33 34 34 34 34 33 33 34 34 34 35 35 31 29 29 25 25 28 27 26 25 23 23 23 22 23 25 26 26 26 26 27 26 28 32 33 32 32 31 31 32 31
19 20 20 21 21 22 22 23 23 24 24 24 25 25 25 25 24 23 23 23 22 22 22 21 20 20 23 27 31 32 32 32 32 32 32 32 32 33 33 33 32 33 33 33 33 33 34 34 34 33 33 34 34 33 33 33 34 35 29 25 27 25 25 27 27 27 25 23 24 24 23 24 25 25 26 26 26 26 26 27 31 33 32 32 31 31 32 31
20 20 20 21 21 22 22 23 23 24 24 25 25 25 25 25 24 24 23 23 22 22 21 21 21 22 24 28 31 32 31 31 32 32 32 32 33 33 33 33 33 33 33 33 33 33 34 34 33 33 33 33 33 33 32 30 30 34 29 23 25 25 24 26 27 28 27 24 24 24 23 24 25 25 25 26 25 26 25 26 30 32 32 32 31 32 32 31
20 20 20 21 21 22 22 23 23 24 24 25 25 25 25 25 24 23 23 23 22 22 21 22 23 23 26 29 31 31 32 32 33 33 33 33 33 33 33 33 33 33 33 33 33 34 33 33 33 33 33 32 32 32 28 24 24 28 29 26 26 27 25 24 26 27 27 25 25 24 24 25 25 25 25 26 25 25 26 26 29 32 32 32 31 32 31 31
20 20 21 21 21 21 22 23 23 24 24 25 25 25 26 25 24 23 23 23 22 21 21 22 24 24 26 29 30 32 33 33 33 33 33 33 33 33 33 33 34 33 33 33 33 33 33 33 33 32 32 31 32 31 25 24 26 26 26 26 26 27 25 24 25 27 27 26 25 25 25 25 25 25 26 26 26 25 26 27 28 31 32 32 32 32 31 31
20 21 21 21 21 22 22 23 23 24 24 25 26 26 26 25 24 23 22 23 23 24 25 25 25 27 29 31 33 34 34 33 33 33 33 34 33 33 34 33 34 33 32 32 32 32 32 32 32 30 30 31 32 32 29 30 32 30 30 28 26 26 26 26 27 27 27 26 26 26 25 25 25 25 26 26 26 26 26 28 28 29 31 32 31 31 31 31
20 20 21 21 22 22 23 23 23 24 24 25 25 25 26 26 27 26 24 24 26 28 30 29 28 30 32 33 34 33 33 33 33 33 33 34 33 33 33 33 33 33 32 32 31 32 33 31 30 29 30 32 33 34 34 35 35 34 33 31 29 26 25 28 28 28 29 27 26 27 25 26 26 26 27 27 27 27 27 28 29 29 31 31 31 31 31 32
20 20 21 21 22 22 23 23 24 24 25 25 23 24 26 28 29 29 28 28 29 29 30 31 31 32 33 34 34 34 33 33 33 33 34 34 34 33 33 33 32 32 32 32 32 33 33 30 29 32 33 34 35 35 36 35 35 35 32 30 29 27 26 29 29 28 29 27 26 27 26 26 27 27 28 28 28 28 28 28 29 29 30 30 30 31 31 32
20 20 21 21 22 23 23 24 24 25 25 24 22 23 26 29 30 31 30 29 30 31 31 32 33 34 34 35 35 35 33 32 32 33 34 34 33 32 32 33 32 32 33 33 33 32 31 29 31 34 35 35 35 36 36 35 35 34 32 29 27 28 28 29 29 29 29 27 26 27 26 26 28 28 28 28 28 28 28 29 29 28 29 29 29 30 30 31
20 20 21 21 22 23 23 24 25 25 26 25 23 25 28 30 32 31 30 29 30 32 33 33 34 34 34 34 35 34 33 33 32 33 34 33 33 33 32 33 32 33 33 33 33 29 27 30 34 36 35 35 35 35 35 34 34 33 32 28 26 29 28 25 27 29 29 28 27 27 27 26 28 28 28 29 29 29 29 29 28 27 28 28 28 29 30 30
20 20 21 21 22 23 24 25 26 27 27 27 26 28 30 31 31 31 30 29 29 31 33 34 35 34 34 34 34 33 33 34 34 33 34 33 33 33 33 34 33 33 34 34 34 31 30 33 36 36 35 35 34 34 35 33 31 33 33 30 28 31 29 26 28 29 29 28 28 28 24 24 27 27 27 28 28 28 27 27 28 27 27 27 27 28 28 30
20 20 21 22 22 23 24 25 27 27 27 27 28 30 31 31 31 31 29 28 28 31 33 34 35 34 35 35 34 34 33 34 34 34 35 34 33 33 33 34 34 33 33 34 34 33 33 35 36 35 35 35 34 34 34 32 29 29 33 34 33 34 32 30 30 29 25 24 28 28 22 22 25 26 26 27 27 27 26 26 27 27 26 26 25 25 26 26
20 20 21 21 22 23 25 26 26 26 26 28 29 31 32 31 31 31 29 27 25 30 33 33 33 34 34 34 34 34 33 33 35 35 35 35 34 34 33 33 34 33 34 35 35 33 34 35 35 34 34 34 34 33 34 35 29 26 32 36 36 36 34 31 30 27 23 22 27 29 24 21 23 25 26 26 26 26 25 26 26 26 26 25 24 25 26 25
20 20 21 21 22 21 22 25 25 24 26 28 29 30 31 31 31 31 28 23 23 30 33 32 32 33 34 34 35 34 30 31 34 34 35 35 35 35 32 32 34 33 35 35 30 31 35 35 34 35 34 34 33 32 34 36 29 26 33 36 35 35 34 33 31 28 26 26 27 29 26 22 21 23 25 26 26 25 25 25 25 25 25 25 24 25 26 26
20 21 21 21 22 20 20 22 21 23 27 29 29 29 30 30 30 30 26 20 25 33 33 32 33 33 34 34 35 33 32 32 33 33 35 35 34 34 33 32 33 33 36 33 26 30 36 34 34 35 34 32 32 33 35 36 32 31 35 35 34 35 34 34 32 29 29 27 22 25 27 22 21 23 24 25 25 25 25 25 25 25 24 25 24 24 25 25
20 20 21 22 22 22 21 20 19 23 27 29 28 29 30 30 30 29 24 21 28 33 33 33 33 33 34 34 34 34 34 34 33 33 35 35 34 34 32 33 33 33 35 34 30 33 35 34 35 35 33 33 33 35 36 35 34 34 35 35 35 36 35 35 32 28 27 25 21 24 26 22 20 22 23 24 24 24 26 25 25 25 24 24 24 24 24 24
20 20 21 21 21 21 20 20 22 25 27 27 28 29 30 29 28 25 21 23 29 32 32 32 32 33 34 33 33 34 34 34 34 34 35 34 34 34 33 34 34 33 35 35 33 34 35 35 35 35 34 34 34 35 35 35 35 35 35 35 34 34 35 33 32 28 25 23 23 25 26 23 21 22 23 24 25 25 26 26 25 25 24 24 24 24 24 24
21 21 21 21 21 20 19 21 25 27 27 27 28 29 29 28 27 22 21 28 30 31 33 32 32 34 33 33 33 33 34 34 35 34 34 34 34 33 33 33 32 32 32 32 32 34 35 34 34 35 35 35 35 35 35 36 35 35 35 33 29 28 29 28 27 27 23 22 24 26 27 24 21 22 24 25 27 27 27 26 25 25 24 24 24 24 24 24
21 22 21 22 22 21 20 23 27 27 27 28 28 29 27 26 24 21 24 29 28 29 33 33 33 34 33 33 33 33 34 34 34 34 33 33 32 33 32 31 31 28 25 26 29 31 33 34 35 35 35 35 34 33 33 35 35 35 33 29 24 23 24 23 23 23 22 22 25 27 26 23 21 23 26 26 27 28 27 27 26 26 25 24 24 24 24 24
21 22 23 23 23 23 24 25 26 26 26 27 27 28 26 22 22 23 26 28 27 30 34 34 34 35 34 33 33 34 34 33 34 34 34 34 33 33 33 33 34 30 26 26 26 26 28 33 35 34 34 35 34 31 28 30 32 33 30 26 23 22 22 22 22 23 23 23 25 27 25 22 21 24 27 27 27 27 27 26 26 26 26 25 25 25 24 24
22 23 23 24 24 25 26 25 25 25 26 27 27 27 25 21 23 26 27 29 31 33 34 34 35 34 34 33 33 35 33 32 34 34 34 34 32 31 33 33 35 34 31 28 26 25 24 26 32 33 32 33 35 33 31 31 32 32 34 31 25 23 23 22 22 22 23 23 24 25 24 21 21 24 27 27 27 27 26 25 25 25 25 26 26 25 24 24
22 23 23 23 24 25 26 25 25 25 25 26 27 25 22 21 24 26 28 32 35 35 35 35 35 33 32 33 34 35 33 31 34 35 34 33 31 31 33 33 34 34 32 27 26 27 24 24 32 35 34 34 34 35 36 34 31 32 35 31 26 26 26 23 23 23 23 23 22 22 22 22 24 25 27 27 27 26 26 25 25 25 25 26 26 25 24 24
23 23 23 23 24 26 26 26 26 25 25 26 25 23 23 24 27 28 30 33 34 35 34 33 33 30 28 31 33 35 34 32 34 34 32 33 33 33 34 34 34 34 32 28 27 27 23 24 33 35 33 36 35 35 37 33 29 30 30 27 28 33 31 24 23 24 23 22 22 21 21 22 24 25 26 27 27 26 26 26 25 25 25 25 24 24 24 24
22 22 22 23 25 26 26 26 26 25 25 26 24 23 26 28 30 31 32 34 33 35 34 29 29 29 26 27 31 33 33 32 33 32 30 32 32 33 35 34 33 34 34 32 29 30 26 25 32 35 33 35 36 35 36 35 33 30 27 28 32 34 32 27 23 23 23 22 21 21 21 21 22 23 25 26 26 25 25 24 24 24 23 23 23 23 23 24
20 19 21 24 27 27 27 26 26 25 26 26 24 25 27 29 31 31 32 33 32 35 33 28 29 31 28 26 29 33 33 29 31 31 29 30 30 32 35 33 33 34 35 33 31 32 30 24 29 36 34 34 37 35 32 34 36 32 30 33 32 27 25 25 23 22 22 22 21 21 21 21 21 21 23 23 23 22 22 22 22 22 21 21 22 22 22 23
19 19 23 27 29 28 27 26 26 27 26 25 24 26 28 29 30 31 32 32 33 33 33 31 31 31 31 30 30 33 33 29 31 31 28 29 29 31 35 34 33 33 34 35 32 32 33 26 25 34 36 34 34 32 28 29 34 34 33 35 33 28 25 25 24 24 22 22 21 21 20 21 21 21 21 22 22 22 22 22 21 21 21 20 21 21 22 23
21 22 25 29 29 27 27 27 27 26 25 25 26 27 29 30 31 32 33 33 34 34 33 33 33 32 31 33 32 33 33 32 33 32 30 30 30 30 34 34 34 33 33 34 33 33 33 28 23 30 35 32 30 31 30 29 31 31 29 29 30 29 28 27 26 25 23 22 22 21 20 20 22 22 22 22 22 21 22 22 21 21 21 20 21 21 22 22
20 23 26 29 29 28 28 27 26 26 26 26 27 28 29 30 31 32 33 34 34 35 34 33 33 32 31 32 32 34 34 34 34 33 32 32 30 29 33 35 34 34 33 33 33 31 31 29 24 25 28 26 28 33 35 33 33 32 29 28 28 28 26 24 24 24 24 23 22 21 20 21 23 23 22 23 22 21 22 22 22 21 21 21 21 21 21 22
20 24 27 29 28 28 28 26 26 27 26 27 28 29 30 31 31 32 33 34 34 34 34 34 33 33 33 32 32 33 34 33 33 32 31 32 32 31 33 35 34 34 33 32 32 31 31 30 25 23 26 28 31 35 35 34 35 34 32 32 32 30 26 22 21 23 23 23 23 22 20 21 23 23 23 23 22 21 22 22 22 21 21 22 22 21 21 21
22 23 27 29 29 28 27 26 27 28 27 28 29 30 31 31 31 32 33 33 34 33 33 33 33 33 34 33 33 34 33 32 32 33 32 31 33 33 33 34 33 34 33 31 31 31 31 30 25 23 27 30 33 35 35 35 35 32 32 33 33 31 29 27 25 25 23 22 23 22 20 21 23 24 23 22 22 22 22 22 22 21 21 21 21 21 21 21
20 21 25 28 29 29 27 26 27 27 28 29 29 30 31 32 32 32 32 33 34 33 33 33 34 33 33 34 33 34 33 30 31 34 33 32 32 33 33 33 33 32 31 30 31 30 28 28 25 22 23 25 27 29 30 31 32 31 32 34 33 32 32 30 28 27 24 22 23 22 20 21 23 24 24 23 23 22 22 22 22 21 20 20 21 21 20 20
19 21 25 27 29 29 27 27 28 28 28 29 29 30 31 32 32 32 33 33 34 34 33 33 34 33 34 34 33 34 34 31 31 33 34 32 32 33 33 33 32 31 31 31 32 31 29 28 26 22 21 22 22 23 24 26 28 30 31 33 33 33 32 29 26 24 22 22 23 22 21 21 23 24 24 23 23 23 22 22 22 21 20 20 20 20 19 19
20 23 25 27 29 28 27 28 28 28 28 28 28 30 30 31 32 33 33 33 33 33 33 33 34 34 33 33 33 33 34 33 32 33 33 33 32 33 33 33 32 31 31 32 32 32 30 28 27 25 23 23 23 24 28 29 27 27 29 31 32 33 32 29 24 22 23 23 22 22 22 22 22 23 23 23 23 23 23 22 22 21 21 20 20 20 19 19
20 22 25 26 26 27 27 28 29 28 28 28 28 29 30 30 31 32 33 33 33 33 33 32 33 33 33 32 32 32 33 33 33 33 33 33 32 32 33 33 32 31 32 32 32 31 29 26 28 28 26 27 28 29 32 31 28 27 28 29 31 32 32 28 24 24 25 23 21 22 23 22 22 23 23 23 23 23 22 22 21 21 21 20 20 20 19 19
21 23 25 25 24 25 26 27 29 29 29 29 29 29 30 30 30 31 32 33 33 33 32 31 32 33 33 33 32 31 32 32 31 32 33 33 32 32 32 32 32 31 32 32 32 32 28 25 28 29 27 29 32 31 32 32 31 30 30 29 30 31 30 28 26 28 27 23 21 24 24 22 23 24 23 23 23 22 21 22 21 21 21 20 20 19 19 19
22 22 23 24 24 24 25 26 28 28 29 29 29 29 29 30 30 30 31 32 32 32 32 31 31 32 33 34 32 31 31 29 28 31 32 32 32 32 31 30 31 32 32 31 31 32 29 26 29 29 27 28 31 31 31 31 30 30 30 30 31 31 30 29 29 29 26 24 24 25 24 23 24 24 23 23 23 22 22 22 22 21 21 20 20 19 19 19
21 21 21 21 23 24 25 26 27 27 28 29 28 29 29 30 30 31 32 31 31 32 32 31 31 32 32 33 33 32 32 31 30 32 32 32 32 32 31 30 31 31 32 31 31 31 28 26 30 30 26 26 29 31 31 31 30 28 29 31 31 30 30 30 29 28 26 25 26 25 23 22 23 24 23 23 23 22 22 21 21 21 21 20 20 19 19 19
20 20 20 20 21 23 24 25 26 26 27 28 28 28 29 29 30 30 31 32 31 31 32 31 31 32 32 32 32 32 33 34 33 33 33 33 32 32 32 32 32 31 31 31 31 30 28 28 30 29 23 23 28 30 30 31 30 27 27 29 30 29 29 29 29 28 26 25 25 24 22 21 23 24 23 22 22 21 21 21 21 21 21 21 20 19 19 19
18 19 20 20 21 22 23 25 26 26 26 28 29 29 29 29 30 30 29 30 32 32 32 31 31 31 31 32 32 32 33 34 34 34 34 34 34 33 33 33 33 32 31 31 30 29 29 28 27 26 22 22 27 28 28 29 26 24 26 28 29 30 30 28 28 28 28 26 25 23 22 23 24 23 22 22 21 21 21 21 21 21 21 21 20 20 19 19
Height
800 799 798 797 796 795 793 792 791 790 790 789 788 787 786 785 784 784 783 782 781 780 779 778 777 777 776 775 774 773 771 770 769 770 768 764 763 764 764 764 764 764 765 765 766 767 766 766 765 764 765 764 766 773 775 772 774 783 793 803 807 808 805 799 798 795 791 791 788 787 785 788 789 782 773 772 776 776 778 778 772 771 773 777 781 784 787 791
800 799 798 797 796 794 793 792 791 790 789 788 787 787 785 784 784 783 782 781 780 779 778 777 776 776 775 775 774 772 771 768 768 768 764 761 762 763 763 763 763 764 763 764 764 764 766 764 760 760 763 767 766 771 777 773 776 788 792 800 803 798 794 787 787 786 785 789 789 787 786 785 787 784 776 781 785 778 782 782 776 780 780 780 782 785 789 791
800 799 798 797 796 794 794 792 791 790 789 788 787 786 785 784 783 782 781 780 779 778 778 777 776 775 775 775 773 773 771 769 769 765 759 759 761 761 761 762 761 762 762 763 763 763 764 761 758 758 763 767 766 771 779 777 780 785 789 800 797 787 787 783 782 783 782 785 788 789 788 786 785 782 779 785 787 782 786 785 784 789 788 785 785 785 789 791
800 799 798 796 795 794 793 792 791 790 789 788 786 785 785 783 782 781 779 778 777 777 776 776 776 775 775 774 773 773 770 772 769 760 757 758 759 760 760 760 760 761 761 761 763 763 762 760 758 757 764 769 766 772 780 778 779 781 786 794 787 781 787 784 780 782 781 783 788 790 789 790 786 783 784 786 790 791 786 783 784 788 787 786 786 786 789 791
800 799 798 797 795 794 793 792 791 789 788 787 786 785 783 782 781 780 778 777 776 775 775 775 775 774 774 773 774 772 772 780 769 755 758 758 758 759 758 759 759 760 760 762 763 761 761 759 758 760 766 770 769 776 780 771 770 777 779 779 778 780 790 787 780 782 782 784 789 792 792 791 787 786 786 787 793 792 782 777 778 781 783 783 785 786 788 790
800 799 797 797 795 794 793 791 790 789 788 786 785 784 782 781 779 778 777 776 775 775 774 774 774 774 774 773 774 771 776 782 764 754 759 756 757 757 757 758 758 759 760 762 761 760 761 758 761 766 768 769 768 772 771 761 762 777 778 773 776 780 791 791 783 783 784 787 793 793 792 789 791 792 787 787 788 782 774 772 773 776 779 781 783 785 788 790
800 798 798 796 794 794 792 791 790 788 787 785 784 782 781 780 778 777 776 775 775 774 774 774 773 774 773 773 773 773 776 773 757 755 758 755 758 756 756 758 757 760 760 761 761 760 761 760 764 765 767 769 765 761 757 753 756 772 780 777 780 783 790 789 784 785 786 790 791 789 790 792 797 796 789 788 783 776 772 770 770 774 777 780 783 785 787 788
800 799 797 796 794 793 791 790 789 787 786 785 783 782 781 779 778 776 775 775 773 773 774 773 773 773 773 773 773 774 774 765 755 756 756 755 757 755 757 757 757 760 758 760 759 758 759 761 762 760 767 768 759 756 749 751 759 769 780 779 781 786 786 783 784 788 788 789 789 789 794 796 795 793 791 788 780 775 773 770 770 774 777 780 783 785 786 787
800 799 797 796 794 792 791 790 788 787 786 784 783 781 780 778 777 776 774 774 773 773 773 772 773 772 773 772 773 777 769 757 754 756 755 756 756 756 757 756 758 758 758 759 756 756 758 761 759 756 765 762 754 755 747 757 768 768 775 778 781 786 785 785 787 790 790 789 790 794 798 794 790 792 793 785 778 776 773 771 771 774 779 781 782 783 784 785
800 798 797 795 793 792 791 789 788 787 785 784 782 781 780 778 777 775 774 773 773 773 772 773 773 772 774 771 775 780 763 752 755 754 755 756 755 756 756 756 758 757 757 757 754 754 754 756 754 748 756 757 755 755 749 758 763 760 770 776 780 785 784 787 790 789 789 791 792 795 799 794 789 796 798 784 776 777 775 774 773 776 781 781 782 781 782 784
800 798 797 795 793 792 790 789 788 786 785 783 782 781 779 778 777 775 774 773 773 773 773 773 772 772 773 772 779 777 757 751 754 752 754 755 755 756 755 756 756 756 756 754 753 751 750 750 747 748 758 758 757 757 751 751 752 756 768 778 783 783 785 788 791 791 788 794 795 794 801 800 795 799 797 784 778 778 779 777 774 777 780 779 781 781 781 783
800 798 796 795 793 791 790 789 787 786 785 783 782 780 778 777 776 775 774 773 773 773 773 773 773 773 772 774 775 766 752 752 753 752 754 754 755 755 754 755 754 755 754 752 751 748 749 747 745 755 761 757 762 765 756 746 748 756 765 784 791 786 791 790 789 791 790 796 794 796 810 811 804 799 791 784 780 779 781 779 776 778 779 779 780 781 782 782
799 798 796 795 793 791 790 788 787 786 784 783 781 779 778 777 775 775 774 774 773 773 773 773 773 771 774 774 763 754 752 752 752 752 753 753 754 753 752 754 753 753 753 752 751 748 748 747 747 754 753 757 766 762 752 745 748 757 764 781 792 795 799 791 787 791 793 797 792 798 819 817 805 796 788 785 782 781 785 782 778 778 778 779 780 782 783 782
799 798 796 794 792 791 789 787 786 785 783 782 780 779 778 775 775 775 774 774 773 773 773 773 773 773 776 770 755 751 752 751 752 752 752 752 751 751 751 751 752 752 752 751 750 749 748 746 746 750 751 756 759 752 754 754 752 760 772 781 790 802 805 790 786 791 797 800 792 802 820 813 801 795 787 785 783 785 789 785 779 778 779 780 781 783 784 783
799 797 795 794 792 790 789 787 785 784 783 781 780 778 776 775 774 773 774 774 772 773 772 772 772 772 776 768 752 751 751 750 752 750 751 751 749 749 749 749 750 750 751 750 750 749 748 746 749 756 756 751 752 761 768 767 759 760 780 797 795 799 802 793 787 787 796 799 793 803 817 809 799 793 787 785 785 787 791 789 781 778 780 781 782 784 785 784
799 797 795 793 791 790 788 786 785 783 782 780 779 778 776 774 773 773 774 772 772 773 772 773 771 772 779 768 753 751 751 750 750 749 749 749 748 748 747 748 748 748 750 749 748 748 747 748 751 755 757 756 761 770 775 777 773 764 778 799 797 796 802 800 791 783 788 796 795 801 811 809 799 791 787 785 787 789 792 791 784 780 780 782 784 784 785 785
798 796 795 793 791 789 787 786 784 782 780 779 778 776 775 773 771 772 772 771 773 772 771 773 770 773 773 760 755 755 749 749 748 748 748 747 748 747 746 747 747 747 747 747 748 748 748 751 755 757 759 764 767 771 785 793 787 777 779 787 787 791 800 803 798 787 784 793 798 799 804 804 796 790 790 788 788 792 794 792 786 781 781 782 784 785 785 786
798 796 794 792 790 789 787 785 783 781 780 778 777 775 773 772 770 770 771 771 771 771 773 772 772 782 776 758 756 753 745 746 746 746 747 746 747 747 746 746 745 746 749 752 751 751 754 754 758 766 767 769 769 773 790 792 780 781 783 782 784 787 794 800 798 789 786 793 797 800 803 800 795 793 793 790 789 793 794 791 788 784 782 783 784 785 786 787
797 795 793 792 790 788 786 784 782 781 778 776 776 774 771 769 768 769 770 771 773 775 776 772 771 778 772 754 748 745 743 745 746 746 746 744 746 746 745 745 744 748 757 763 760 754 757 761 766 776 777 773 770 769 775 770 762 767 770 772 780 785 790 791 789 784 784 794 797 798 802 800 799 797 794 792 790 793 794 790 789 788 784 784 786 786 786 787
797 795 793 791 789 787 785 784 782 780 778 776 774 773 772 772 774 774 771 770 769 766 764 762 760 760 755 747 742 743 744 746 747 746 744 744 744 746 745 745 748 753 761 766 765 754 755 771 778 777 775 767 761 757 755 753 749 754 761 765 770 781 788 784 783 780 776 790 798 795 799 800 799 797 792 791 791 792 794 792 791 790 787 786 788 787 786 787
796 794 792 790 788 786 784 782 781 780 778 776 775 776 776 774 779 779 772 767 760 753 755 752 749 750 747 743 740 740 745 748 746 742 742 742 742 750 751 749 758 765 762 759 759 752 756 776 776 763 758 753 749 747 745 748 749 753 761 765 769 778 784 779 779 778 772 786 798 793 798 802 797 796 792 789 792 794 793 793 793 790 789 789 789 789 787 786
795 793 791 789 787 785 783 781 780 779 777 776 775 776 773 768 771 769 767 771 760 747 749 745 743 745 741 739 738 737 746 754 751 743 740 741 744 754 754 752 764 766 756 753 759 763 769 774 764 750 744 742 743 742 742 749 753 757 760 766 773 773 779 780 776 776 774 786 799 795 798 803 796 793 791 790 792 791 789 789 791 791 792 793 794 793 790 788
795 792 790 788 785 784 781 779 779 777 775 775 774 773 769 765 764 762 765 775 767 749 744 744 745 745 741 741 737 738 749 754 755 748 738 742 748 750 753 756 761 759 755 756 762 773 778 768 750 741 739 743 747 745 747 754 756 760 761 768 774 769 778 789 782 778 776 782 793 795 799 802 797 794 792 790 789 788 787 786 787 790 792 795 795 794 793 791
794 791 790 787 784 783 780 778 776 776 775 773 772 769 765 765 764 764 766 773 771 754 741 739 739 741 741 739 735 742 750 747 747 746 736 742 749 747 750 753 755 758 756 753 756 765 769 753 738 737 741 746 754 754 755 761 764 761 758 764 768 763 770 781 778 777 780 783 784 790 808 810 801 803 800 792 789 789 789 789 789 790 791 792 793 794 795 792
793 792 790 786 785 781 779 777 774 775 774 771 769 765 763 765 763 763 769 778 778 757 741 737 737 738 735 735 737 739 744 743 741 740 733 737 745 748 749 745 750 761 756 748 753 760 758 743 735 743 748 748 756 760 757 762 769 766 757 754 754 754 759 768 771 778 795 804 788 785 816 824 805 805 807 798 796 796 795 794 792 792 792 794 797 798 799 798
793 792 788 787 784 780 778 776 773 775 773 769 767 764 764 765 763 763 771 789 789 763 749 746 744 743 736 737 737 733 750 752 735 731 732 733 736 741 753 749 746 756 751 744 750 754 750 740 739 748 752 752 757 760 754 754 768 773 758 745 744 746 752 761 768 780 800 807 785 773 803 826 817 810 809 802 802 802 799 798 796 794 794 795 798 797 798 802
793 790 788 788 784 782 780 776 776 776 773 770 765 765 765 763 764 763 777 806 797 761 752 751 745 743 738 736 733 742 767 758 735 734 731 733 733 734 754 757 750 750 740 743 760 756 745 744 746 748 752 757 761 761 751 746 764 772 751 740 745 747 750 756 761 772 779 783 785 778 787 819 828 818 810 803 805 806 801 801 800 796 795 796 797 795 794 796
792 789 788 786 784 784 781 778 778 774 773 771 766 767 766 764 765 765 792 825 796 749 747 748 739 736 733 733 733 745 757 748 750 749 726 729 736 736 754 756 751 751 735 749 774 758 741 748 752 749 755 761 759 754 744 742 759 760 743 741 746 747 750 752 755 764 763 776 803 794 782 817 835 818 810 807 807 810 805 803 801 797 796 794 795 795 793 792
791 789 787 785 784 783 781 780 778 774 773 769 768 770 765 765 767 772 805 821 779 744 745 743 740 740 736 738 741 744 744 743 755 747 726 731 734 737 753 749 746 751 738 745 765 753 741 743 743 746 756 759 753 745 738 743 754 747 740 743 744 745 748 750 757 765 766 781 803 790 781 819 841 822 814 814 810 809 804 800 799 796 794 793 793 793 792 791
789 788 786 784 783 782 781 779 774 773 772 770 771 769 765 770 775 797 825 807 765 748 744 742 747 746 744 750 752 747 744 745 745 737 735 738 734 736 743 738 740 749 745 744 751 747 737 732 733 741 748 747 744 741 737 740 744 740 744 749 751 752 750 754 758 761 779 794 788 774 771 800 829 824 813 810 804 799 797 797 796 794 794 793 792 791 790 791
788 786 785 783 782 782 782 777 771 772 772 771 771 766 770 778 786 815 821 777 754 755 746 746 749 744 748 757 758 750 746 746 741 743 749 746 744 747 746 747 749 755 759 757 752 745 738 740 741 738 736 736 741 743 738 735 736 741 750 756 765 768 763 769 770 770 797 804 778 765 765 784 818 821 806 800 793 789 792 794 793 793 793 791 790 789 788 789
785 784 783 781 779 779 778 774 770 772 772 771 771 769 780 795 802 812 795 759 762 765 749 748 748 743 749 753 755 750 747 749 744 745 753 753 756 755 754 760 760 767 777 770 761 754 747 746 742 737 733 733 745 754 748 742 740 746 754 761 779 789 788 796 795 791 802 793 768 761 770 795 818 810 797 796 791 787 788 788 788 789 789 789 788 788 787 788
783 781 779 777 775 773 772 771 770 772 771 770 773 774 788 812 812 794 775 766 767 755 741 743 741 742 748 751 752 746 745 751 745 745 748 749 756 755 751 750 748 762 775 767 765 766 761 751 740 743 743 734 743 759 764 759 753 755 758 765 784 798 808 816 805 798 796 780 764 761 778 813 823 804 794 794 790 787 786 786 787 786 786 787 785 785 786 787
780 777 776 772 771 769 768 769 770 771 771 770 777 784 799 817 802 775 769 765 750 738 737 740 740 744 749 751 750 742 748 754 743 745 749 748 758 758 751 747 740 748 759 763 767 767 774 773 752 747 749 740 741 749 754 755 754 754 747 753 773 781 795 806 797 796 792 777 772 774 793 822 824 806 794 789 787 787 787 788 787 786 785 783 783 784 786 785
777 774 773 769 767 766 765 767 768 770 772 773 782 795 807 808 787 771 769 753 738 736 736 735 741 752 754 750 745 738 746 754 744 744 750 752 758 755 749 748 743 745 757 770 770 760 770 773 748 737 738 737 741 737 734 746 758 753 740 752 768 762 766 778 778 780 778 780 795 801 808 816 808 800 792 788 791 789 789 791 789 790 787 784 786 786 787 787
774 770 769 766 764 763 762 764 766 768 771 776 790 801 799 788 773 766 758 742 739 740 741 745 749 758 762 754 748 741 741 748 746 749 752 751 752 749 745 745 742 745 755 766 770 765 773 771 744 736 737 732 737 735 729 744 760 755 752 764 761 743 749 769 776 770 767 794 822 821 820 818 807 805 798 792 797 794 793 795 793 794 792 789 792 791 790 791
772 768 766 763 760 761 762 762 765 768 769 779 795 796 783 770 760 756 747 739 741 738 745 760 757 756 763 758 753 748 746 749 748 752 757 753 752 747 743 744 742 743 746 754 763 761 770 774 748 739 748 735 726 731 731 732 743 758 766 761 747 739 746 762 782 783 779 810 837 831 831 833 825 823 811 801 805 805 802 803 801 801 801 799 798 796 794 793
772 769 764 757 755 758 760 762 764 767 771 782 792 787 775 765 753 749 745 742 741 736 745 761 757 752 758 759 755 746 748 756 753 753 757 756 755 746 741 746 745 741 738 744 758 755 759 776 758 738 746 739 724 735 747 736 731 747 754 744 747 765 771 769 783 796 797 818 841 840 836 838 836 834 824 817 817 813 810 810 810 811 810 808 804 801 799 795
774 772 765 753 752 755 758 762 763 766 775 786 791 783 771 763 752 746 744 743 741 741 747 753 751 751 752 752 752 745 747 755 752 751 756 759 758 745 737 744 746 743 738 740 755 754 753 776 775 744 735 739 737 747 761 755 740 739 743 741 746 760 770 770 774 783 793 810 831 842 844 842 838 832 827 823 818 813 811 811 812 811 809 807 804 802 800 796
774 776 768 752 752 757 757 761 764 771 780 783 782 776 766 759 751 741 737 737 738 740 747 749 747 751 752 746 744 742 743 748 745 746 752 754 756 750 739 739 743 744 740 738 748 752 751 769 780 759 740 747 756 754 755 758 753 751 756 758 756 756 761 768 768 769 780 798 816 837 852 846 829 823 822 819 816 813 809 807 809 807 804 803 801 800 799 797
776 779 768 751 753 757 757 765 771 774 779 778 774 770 763 756 750 741 733 731 731 732 737 744 745 749 752 750 746 740 740 743 741 742 747 747 752 756 743 734 739 743 744 746 751 755 759 768 778 773 763 764 762 746 738 743 747 752 758 759 761 763 768 782 789 776 774 789 801 824 852 844 820 815 816 812 813 813 807 805 807 806 803 802 800 798 798 797
779 779 764 752 755 756 759 771 772 770 775 774 768 764 758 752 748 744 735 730 731 731 732 738 742 744 747 747 746 742 741 743 742 744 748 747 749 751 740 731 735 739 745 755 755 752 756 765 775 777 771 766 754 738 734 737 737 744 752 752 754 760 768 788 804 791 781 787 789 810 844 839 815 811 811 811 813 811 807 806 807 807 804 801 800 798 798 797
781 776 760 752 754 753 763 775 772 769 770 765 759 755 751 749 747 743 737 733 733 735 737 739 740 741 742 741 742 743 743 745 742 741 747 750 747 743 737 733 736 739 747 759 759 752 756 766 776 779 770 758 747 736 734 735 739 750 754 749 751 760 763 772 782 782 787 795 793 813 843 837 815 809 809 811 812 809 807 805 807 810 806 801 801 800 799 798
783 775 760 754 753 753 766 776 773 770 767 760 758 755 748 745 743 742 740 736 732 734 740 740 739 740 739 738 741 742 744 748 746 738 742 751 748 739 735 735 740 745 752 760 760 759 767 775 780 789 791 782 773 766 758 752 752 758 757 751 750 754 756 761 767 774 791 797 793 814 841 833 813 807 808 810 810 809 808 805 807 811 809 805 803 801 802 801
783 774 761 753 751 754 763 765 765 767 763 759 759 755 750 744 737 735 736 734 728 730 738 738 735 736 736 737 742 741 740 746 749 742 742 749 746 738 735 738 741 747 750 750 748 753 769 777 780 795 811 812 808 800 786 774 766 760 757 754 751 751 755 765 774 787 801 800 795 813 832 826 813 810 811 810 810 811 809 807 808 809 809 808 805 804 805 804
785 779 769 758 752 754 758 755 757 763 761 761 761 755 752 750 738 728 729 732 730 729 735 737 732 734 738 742 747 747 742 741 744 745 745 748 747 739 736 739 743 746 747 746 745 752 768 775 776 785 796 799 797 787 773 769 770 766 762 757 755 753 756 764 779 792 796 798 807 815 817 820 820 815 814 812 810 811 810 809 810 810 809 809 807 807 807 805
788 783 774 769 764 761 760 755 755 758 757 759 763 757 752 752 745 734 728 730 731 731 735 736 733 736 742 745 750 751 747 743 744 745 745 746 746 742 738 739 744 746 745 745 747 755 771 779 776 776 777 775 773 768 760 760 765 765 763 762 760 758 759 767 779 784 782 797 819 814 805 817 822 813 813 813 809 810 811 810 811 811 810 810 808 808 808 806
785 779 769 769 772 770 767 761 754 753 752 753 755 754 752 752 750 745 736 729 728 732 740 743 739 738 739 740 747 751 748 750 751 748 746 746 748 748 745 743 745 744 745 748 748 753 772 781 774 772 774 767 762 760 757 759 760 760 762 764 762 761 765 770 773 774 778 798 814 807 803 813 814 809 811 810 807 810 811 809 810 810 810 811 810 809 809 808
781 779 771 769 771 771 768 761 753 752 751 750 751 752 752 752 750 746 738 734 735 735 740 749 746 739 735 733 740 749 750 753 757 752 747 748 748 749 753 755 750 744 744 751 751 752 768 778 771 771 775 770 764 761 757 758 762 761 761 763 762 763 765 766 769 773 781 794 800 798 805 811 806 806 808 805 806 808 808 808 809 809 811 811 811 811 809 808
784 784 780 776 774 768 764 759 756 757 754 751 754 753 749 750 750 743 735 737 745 741 739 747 746 738 736 734 737 745 743 743 750 748 743 748 749 748 753 757 754 749 748 753 754 754 766 775 768 768 777 776 767 761 757 757 763 764 764 762 762 766 767 766 770 777 784 793 793 794 809 816 806 801 804 805 806 807 808 810 810 811 812 812 812 812 810 809
785 784 783 784 779 771 767 762 758 762 760 755 756 754 751 751 747 743 738 733 738 740 738 744 745 737 735 736 737 740 734 731 737 736 732 739 742 742 745 746 748 753 754 752 755 759 767 772 767 769 785 784 769 763 760 756 759 765 766 765 764 766 768 769 772 776 781 790 793 798 812 817 807 801 804 806 807 809 811 811 811 812 812 812 813 813 812 811
786 784 781 783 782 774 770 766 762 764 764 755 751 750 750 748 741 744 748 739 730 731 734 739 743 741 740 741 739 735 729 725 726 723 722 726 728 730 736 737 739 748 752 752 757 762 766 771 770 776 791 787 771 767 764 760 772 780 772 766 766 764 765 770 774 774 775 783 794 805 811 808 801 802 807 809 810 811 812 810 811 812 811 812 813 813 813 813
Wind_Speed
13 13 13 13 13 13 13 13 13 12 12 12 12 12 12 11 12 11 12 12 12 13 13 14 14 14 13 13 14 15 17 14 8 6 9 7 4 6 5 7 9 8 8 7 9 8 9 12 15 17 15 9 3 3 3 4 2 2 1 2 2 2 2 3 5 3 2 3 2 4 3 4 3 2 2 3 4 3 9 6 6 11 13 16 21 25 25 23
13 13 13 13 14 14 13 13 13 13 13 13 13 13 13 14 14 14 14 14 14 14 14 14 13 13 13 12 13 14 15 12 9 10 14 11 7 9 8 11 12 10 10 9 11 11 10 9 10 13 9 4 5 3 3 4 3 2 1 2 2 2 3 3 4 3 2 4 4 3 1 3 2 1 1 1 2 2 6 7 10 14 15 19 22 24 23 22
14 14 13 13 13 14 14 13 13 14 14 14 14 15 15 16 16 16 16 16 16 14 14 13 12 12 11 11 11 12 12 10 6 7 10 10 11 13 11 13 12 10 11 11 12 12 12 13 12 7 4 3 4 4 3 4 3 3 2 2 3 2 3 3 1 2 2 3 5 2 2 2 2 2 2 1 3 2 4 9 13 15 16 17 17 20 22 21
15 14 14 14 13 13 13 14 14 14 15 15 15 16 16 17 17 18 18 18 16 14 13 12 11 10 10 10 9 9 8 6 2 2 4 6 10 13 11 11 10 9 11 12 11 11 16 17 15 8 4 5 4 7 4 6 5 3 3 3 3 4 3 2 1 4 3 3 4 3 3 3 4 3 3 1 2 1 5 10 13 15 16 16 15 17 19 18
16 15 14 14 13 13 14 14 14 15 15 16 16 17 17 18 18 18 18 17 15 13 12 10 9 8 8 8 6 6 5 2 1 4 5 5 7 8 8 8 9 9 10 10 9 12 17 15 11 6 4 6 3 7 6 10 9 4 3 5 6 5 2 2 3 4 3 5 5 2 2 0 3 3 4 3 2 3 4 10 14 15 15 16 15 15 16 15
17 16 15 14 14 14 14 15 15 15 16 17 18 18 19 20 20 19 17 15 13 12 10 8 7 7 8 6 4 4 2 1 2 5 4 3 3 4 5 6 7 9 9 7 10 12 13 11 7 5 4 5 5 5 7 14 14 6 2 7 7 6 5 2 3 3 4 5 4 1 1 2 3 2 3 4 3 2 0 8 15 15 16 17 15 14 14 13
18 17 16 15 15 15 15 16 16 17 17 18 19 20 21 22 21 19 17 15 13 11 8 6 6 6 7 4 3 1 2 4 2 4 2 2 2 2 4 6 7 9 8 7 10 9 9 9 7 6 6 6 7 7 6 11 13 7 5 8 9 11 7 3 2 3 6 5 1 1 3 2 1 2 2 5 5 3 6 5 15 15 17 17 14 13 13 13
18 18 17 16 16 16 16 17 17 17 18 19 20 21 22 21 20 18 17 15 13 10 7 5 5 6 7 4 1 2 2 4 3 3 1 2 2 2 5 6 7 8 8 10 11 9 9 8 8 6 5 6 6 7 4 3 5 9 7 9 12 10 4 4 2 4 5 3 2 3 3 1 0 4 2 5 7 4 8 4 16 15 15 14 13 13 12 13
18 19 18 17 17 17 17 17 17 18 18 19 21 22 22 20 18 18 17 15 12 9 6 5 5 5 6 4 2 3 1 6 4 1 1 2 2 2 5 6 7 8 8 13 15 13 9 5 7 6 6 7 8 10 5 2 5 12 11 10 12 7 5 4 5 4 3 2 2 3 2 1 2 6 3 7 7 4 9 4 17 13 14 12 12 13 11 11
18 18 18 18 18 18 17 17 17 17 18 19 21 21 21 20 17 17 17 14 10 8 6 4 4 4 4 3 3 3 1 7 4 2 3 3 4 2 3 5 7 10 11 14 15 13 8 6 8 7 7 7 6 10 6 1 5 15 15 12 13 8 4 6 6 3 2 3 3 2 1 3 3 4 3 6 4 5 9 4 16 12 13 12 10 11 9 10
17 18 18 18 18 18 17 17 17 17 17 18 20 21 21 19 17 17 15 12 10 7 5 4 4 4 3 2 2 2 2 4 4 5 6 4 7 5 6 7 8 13 14 12 13 14 11 10 10 6 4 5 7 9 6 4 3 17 18 13 12 9 6 7 8 4 1 3 3 2 2 5 4 1 3 3 4 6 9 2 15 11 11 11 10 10 6 8
17 17 18 18 18 18 18 17 17 17 17 18 19 20 21 20 17 16 14 11 10 7 5 4 4 4 3 2 4 6 7 4 5 6 6 6 9 8 9 10 10 13 13 10 11 15 13 12 10 5 4 5 7 6 5 9 5 11 17 11 7 7 6 6 8 6 2 3 3 5 3 4 3 4 3 4 6 6 9 3 12 11 9 9 9 8 5 7
18 18 18 18 18 18 18 18 17 18 18 17 19 20 20 20 17 15 13 10 9 7 5 4 3 4 3 3 4 5 8 5 4 4 4 6 9 10 10 10 10 11 12 11 13 16 17 16 10 5 5 6 5 5 7 10 7 4 9 8 4 4 3 3 6 8 5 5 7 6 1 4 7 9 4 4 5 6 9 5 10 10 7 8 8 7 6 7
18 18 18 18 18 18 18 18 18 19 19 18 18 19 20 21 18 14 11 9 9 7 5 4 3 4 1 5 7 5 8 7 3 4 7 8 10 11 11 9 8 10 11 13 14 15 17 18 12 4 4 5 5 6 8 7 5 3 7 6 3 2 1 3 4 8 6 5 9 6 3 4 7 9 3 3 4 5 7 7 7 10 7 7 8 7 6 6
19 19 18 19 19 19 19 19 19 19 19 19 19 19 20 21 18 13 10 9 8 7 7 5 2 1 2 7 10 6 4 5 6 8 9 11 12 10 11 10 8 9 9 12 13 12 15 15 9 3 3 6 7 6 6 4 4 4 6 2 1 3 3 2 3 6 5 5 9 6 3 2 5 6 3 2 4 4 6 9 4 10 8 8 9 7 6 6
20 19 19 19 19 19 19 19 19 20 21 20 19 20 20 20 18 13 10 9 7 6 5 4 2 4 2 4 3 3 3 5 7 10 9 9 11 7 8 9 6 8 9 11 12 10 14 11 4 3 4 5 6 4 5 4 5 3 4 3 3 3 3 2 3 4 6 8 8 6 2 0 3 5 4 1 4 4 5 9 5 8 9 8 8 6 5 7
22 21 20 20 20 20 20 20 20 21 21 21 21 21 20 20 19 14 10 8 7 6 5 4 3 3 4 5 2 2 6 8 4 7 8 6 9 8 3 6 4 8 10 10 11 9 9 6 2 3 3 3 5 3 4 5 4 1 3 3 5 6 5 3 2 3 6 7 6 5 3 2 3 5 4 0 4 3 5 7 6 5 7 7 7 6 5 7
23 23 21 21 20 20 20 20 20 21 22 23 22 22 22 20 18 13 7 4 3 4 6 6 5 1 4 8 7 3 4 5 2 5 8 6 8 8 7 6 4 6 7 6 8 7 4 3 3 3 3 4 5 4 4 5 3 3 3 3 4 6 6 6 4 4 7 5 5 5 2 1 5 5 4 1 2 2 5 6 6 1 6 7 6 6 6 7
24 23 23 22 21 20 20 20 20 22 23 23 23 23 20 14 10 8 3 2 0 2 4 4 4 2 3 6 6 2 5 1 1 5 8 6 7 8 9 8 5 5 4 3 5 6 4 2 3 4 4 5 7 8 8 8 6 5 4 4 4 6 5 6 6 6 9 6 4 5 3 5 7 6 5 3 4 3 5 5 5 4 3 6 6 5 7 7
24 24 24 23 22 21 20 20 20 21 23 24 24 19 11 5 3 2 1 4 6 8 9 7 8 6 6 2 6 5 4 2 4 8 11 6 6 8 7 6 5 4 4 4 5 6 5 3 4 6 7 10 11 12 10 9 5 6 4 4 5 8 5 7 7 8 10 5 3 6 6 6 7 6 5 4 5 4 4 4 3 3 2 2 4 5 7 6
24 25 25 24 24 22 20 19 19 20 22 24 20 9 4 5 3 2 1 5 10 13 14 14 11 6 4 3 3 4 3 4 7 9 9 7 6 6 5 5 5 3 6 8 6 5 6 4 6 10 12 14 12 11 8 4 4 2 2 4 3 7 7 8 9 10 9 4 3 6 8 5 5 5 5 5 4 4 4 3 2 2 1 1 3 3 5 5
25 25 25 25 24 22 21 19 17 18 21 21 13 3 6 8 5 7 6 5 9 11 14 16 12 5 3 5 7 5 3 5 8 6 8 7 6 5 4 5 5 5 8 9 5 4 6 6 9 11 9 8 5 3 2 4 5 4 3 3 0 6 9 7 9 12 8 2 4 6 7 5 5 5 5 6 5 4 4 2 1 3 2 2 3 1 2 4
24 25 26 26 25 24 22 19 16 18 20 17 11 7 10 10 9 13 8 4 8 11 10 10 8 6 7 3 3 4 5 6 7 6 9 6 4 6 6 5 6 7 6 6 4 3 4 6 7 4 2 5 7 9 8 4 3 3 4 3 1 7 10 5 7 13 8 3 7 6 5 4 4 4 3 4 4 2 1 1 3 3 3 1 3 3 5 6
24 25 26 26 27 24 22 21 15 15 17 17 19 18 17 13 11 14 7 3 5 9 11 9 8 6 4 5 5 6 5 5 3 5 10 7 5 6 6 6 6 6 6 7 6 4 5 6 2 4 7 6 5 6 7 5 3 4 5 5 4 6 10 9 8 11 6 3 10 9 4 1 3 4 3 1 1 1 3 5 4 3 4 5 6 5 3 4
24 25 25 27 27 25 24 19 9 10 15 17 21 18 14 10 10 12 6 3 3 5 9 8 5 1 3 6 8 6 6 4 3 5 11 9 7 5 4 4 4 6 7 7 6 4 5 3 5 5 6 3 1 3 4 3 3 4 6 8 9 5 8 15 13 10 6 2 9 10 4 1 2 4 3 1 3 2 4 4 4 4 3 5 7 7 7 8
24 25 26 26 27 28 21 8 5 15 17 13 15 14 8 6 12 12 4 2 4 2 4 4 3 2 2 5 7 5 6 3 5 5 6 5 6 5 4 5 3 5 7 1 2 2 2 2 4 1 4 4 3 4 5 5 4 4 5 6 7 6 5 15 16 10 5 4 9 9 4 1 2 3 1 1 2 0 3 3 4 4 3 3 5 2 2 4
24 24 26 25 26 28 16 6 14 19 11 10 18 23 16 13 15 10 2 1 4 4 5 2 2 5 5 6 7 4 2 2 4 3 4 3 4 3 4 6 4 4 4 1 1 2 4 3 3 2 2 4 4 4 6 6 4 3 6 9 8 7 3 6 8 5 3 5 5 6 3 5 2 1 1 2 2 1 3 3 5 5 4 1 4 1 2 1
25 25 26 24 24 23 14 13 17 13 9 14 20 22 19 18 16 7 1 2 2 2 3 2 3 4 4 6 5 2 1 3 2 3 6 8 6 2 4 7 7 7 4 3 1 3 3 3 3 1 3 3 4 2 2 2 2 2 7 9 8 7 6 4 2 2 1 6 2 7 5 5 1 2 2 2 3 2 4 3 4 5 4 1 3 3 4 2
25 26 26 25 23 18 11 14 14 10 14 19 18 18 19 19 12 2 0 3 2 1 2 2 3 3 3 4 4 4 4 5 3 3 4 6 7 3 3 6 8 12 6 1 2 3 0 2 3 1 3 1 4 5 4 3 2 4 7 6 5 4 4 3 2 2 4 4 2 8 8 5 1 3 2 1 2 4 4 4 6 6 4 3 2 4 4 3
26 26 27 27 22 13 11 17 17 10 15 18 16 17 16 13 6 1 2 2 2 3 3 2 2 6 6 4 5 7 7 5 3 4 3 1 5 6 4 7 6 8 5 2 5 5 2 2 2 1 2 0 2 4 0 1 4 1 3 4 4 4 3 3 2 1 2 1 5 8 7 8 2 3 3 2 2 4 5 4 5 6 6 5 4 5 5 3
26 26 28 28 23 14 10 13 12 8 12 14 15 14 10 5 0 1 3 1 1 3 4 3 4 8 8 5 5 7 6 7 4 3 3 1 4 5 4 5 3 3 4 4 6 7 5 4 2 2 3 2 2 3 1 3 4 3 3 2 2 4 2 1 4 2 1 4 6 6 5 10 4 3 4 3 2 4 5 4 6 8 8 7 6 5 5 5
27 27 28 28 25 19 14 13 13 12 11 12 13 9 4 1 2 3 2 1 1 2 2 3 6 7 8 7 6 7 6 6 5 4 4 4 4 5 4 4 2 1 3 4 5 6 4 6 5 4 2 1 1 3 3 3 5 3 4 3 1 1 1 2 2 1 3 6 8 6 9 9 3 2 4 5 3 3 3 1 3 6 6 7 7 7 6 5
29 29 28 24 22 22 21 18 17 13 11 12 9 4 1 1 3 5 5 4 2 4 1 2 7 4 5 7 6 6 4 3 6 7 7 6 5 6 8 9 7 3 3 4 3 3 2 5 6 6 3 1 3 2 2 3 5 4 4 3 4 1 1 2 3 3 3 4 3 7 12 6 0 2 4 5 4 3 3 3 2 1 3 4 6 6 6 5
31 29 26 20 19 20 20 19 15 7 8 10 5 1 3 3 4 6 7 7 5 7 4 2 6 3 3 5 4 3 3 3 6 6 6 5 4 6 8 10 7 2 1 3 3 2 2 4 4 4 4 3 5 3 0 2 4 5 5 2 3 2 2 3 3 1 2 2 4 8 7 3 3 2 1 3 4 4 5 2 0 1 2 3 5 5 6 5
31 29 24 19 20 19 16 15 12 7 5 6 2 2 4 4 4 5 6 7 5 4 4 5 3 1 3 5 5 3 4 4 5 5 3 3 4 4 3 5 3 2 3 3 3 3 1 2 3 6 7 6 4 1 1 3 3 4 3 2 1 3 2 2 1 1 2 0 5 5 2 2 2 1 1 2 3 4 4 3 1 1 2 1 2 2 2 1
31 30 22 16 18 15 10 9 12 10 6 3 2 4 5 5 6 4 5 6 5 2 2 4 1 3 3 4 5 4 4 4 5 3 2 4 4 3 1 4 4 1 2 3 3 4 4 2 1 4 7 6 1 2 2 3 2 3 3 2 4 6 1 2 2 4 1 4 4 3 3 4 1 2 3 2 2 3 3 3 4 4 4 4 4 4 4 3
32 27 16 14 18 15 9 7 14 13 6 3 3 4 5 7 9 8 8 8 7 6 3 1 2 4 3 3 4 6 4 2 4 3 2 4 3 1 3 6 4 1 3 3 2 2 3 4 4 2 1 2 3 1 4 3 2 2 2 3 5 6 4 3 1 4 2 5 3 3 4 2 1 2 4 5 6 6 6 7 6 7 8 7 6 6 6 5
28 19 12 16 14 14 13 11 14 11 4 3 5 5 5 8 10 10 10 11 12 9 4 1 1 2 2 3 3 7 7 3 4 4 3 2 1 2 3 5 2 2 4 3 1 3 4 3 2 2 1 3 3 0 3 4 3 3 4 5 3 3 3 2 1 1 2 4 2 2 3 2 2 1 2 6 8 8 10 10 9 11 10 8 7 7 7 6
17 8 8 8 5 13 16 15 13 7 2 3 5 4 5 9 11 11 12 12 12 7 1 2 2 3 3 5 4 6 9 5 5 5 2 2 1 4 2 4 3 1 4 2 0 2 2 2 2 3 1 5 4 2 1 4 4 5 4 4 3 2 0 1 1 2 2 2 3 4 2 1 1 2 3 4 6 6 7 7 6 6 5 4 3 3 4 4
8 4 4 4 15 17 18 15 9 3 3 5 5 5 6 8 10 12 14 14 8 2 1 4 4 2 3 6 6 2 6 6 5 3 3 5 4 2 1 2 5 3 1 1 2 2 1 2 2 5 3 3 1 2 2 1 1 3 3 1 2 2 4 3 1 1 1 1 3 4 2 1 2 3 3 2 4 2 2 4 5 3 1 2 2 2 3 3
5 4 3 11 18 18 16 9 4 3 4 5 5 7 9 8 10 12 14 13 7 1 1 6 6 4 5 7 7 4 2 5 4 1 1 5 4 1 2 2 6 4 1 1 1 2 2 1 1 4 4 4 4 2 1 5 4 1 1 2 3 3 4 3 3 4 2 2 2 4 3 1 2 1 2 2 2 2 1 0 3 3 1 1 1 2 3 4
3 3 3 12 20 17 10 4 3 4 4 5 6 9 9 8 10 12 13 13 8 3 3 6 6 4 5 5 5 6 5 3 3 1 3 6 6 3 2 4 6 4 3 2 2 4 3 1 1 3 3 4 9 6 4 7 6 5 4 3 3 3 4 4 1 3 3 4 3 5 5 2 3 1 1 2 1 1 2 2 3 4 3 3 2 3 3 5
2 7 13 5 19 15 5 3 4 4 4 6 9 11 10 9 10 11 11 11 6 4 3 4 4 4 4 3 5 6 5 4 3 1 7 9 6 5 8 8 5 4 4 3 3 5 4 2 3 5 3 4 10 6 3 5 4 3 2 4 3 1 3 4 3 1 3 3 3 6 3 2 3 3 3 3 2 1 2 3 5 5 3 5 5 4 5 6
3 6 13 8 15 12 5 4 3 4 6 8 11 12 11 10 10 11 11 10 6 4 4 3 3 5 3 2 6 7 4 2 3 2 4 6 4 4 9 8 4 4 4 1 2 1 1 3 4 4 3 4 6 5 3 4 3 1 2 3 5 5 4 4 3 3 4 4 4 5 1 2 3 4 4 5 4 3 1 3 5 5 3 5 7 7 7 7
5 3 5 7 13 9 5 4 4 5 6 8 11 11 11 9 10 12 12 10 7 4 1 1 4 6 4 3 5 6 6 3 1 3 2 4 5 5 8 9 5 6 6 4 4 2 1 1 2 2 2 2 2 2 3 3 3 2 2 5 6 2 5 5 4 4 2 3 4 4 3 2 4 4 4 4 5 5 3 1 4 6 5 6 7 7 7 6
4 2 3 3 7 5 4 5 6 6 6 6 6 7 9 8 7 11 10 7 8 8 7 5 7 8 5 4 6 6 6 6 3 3 3 4 4 4 7 10 9 8 6 5 6 3 1 2 2 2 2 3 4 5 6 6 5 3 4 7 7 7 6 4 5 3 3 2 4 3 6 7 6 6 5 4 4 5 4 3 4 6 6 7 6 6 6 5
2 3 3 2 2 4 5 5 6 6 7 5 4 6 9 9 8 6 6 6 3 6 7 6 7 7 5 4 6 5 5 7 6 3 3 1 5 3 5 8 9 8 6 3 4 4 2 1 3 7 6 6 7 8 7 7 6 5 6 7 7 7 7 4 4 2 4 5 3 1 7 9 7 6 6 5 4 5 4 4 4 5 7 7 6 5 6 6
3 4 5 6 3 3 4 5 6 7 9 8 5 7 10 11 9 7 5 5 5 2 5 4 7 10 9 9 7 4 5 5 6 5 4 1 4 4 4 6 7 7 5 3 3 4 2 1 3 6 8 9 8 8 9 9 7 4 5 7 6 6 6 4 3 4 6 7 3 3 7 8 6 7 7 5 5 6 5 5 5 6 7 7 5 6 6 6
3 4 7 9 6 5 8 10 10 8 8 6 3 6 9 11 9 8 7 2 4 4 4 5 9 12 12 10 5 2 3 4 5 5 4 3 2 3 3 5 4 5 5 3 2 3 3 2 4 5 7 9 9 11 14 12 6 3 4 5 5 5 6 5 2 7 11 10 7 8 9 6 4 7 7 5 5 7 5 4 5 5 7 7 5 4 5 5
3 4 6 7 7 6 8 10 9 8 7 4 3 4 7 9 10 9 7 4 2 6 6 6 12 12 14 13 6 3 3 2 3 5 5 5 3 2 3 3 3 3 4 4 3 3 2 3 3 3 4 6 9 11 9 6 4 4 5 5 3 2 4 5 2 9 12 9 7 10 10 5 3 6 8 6 5 6 5 4 5 5 6 6 5 4 4 4
9 9 7 5 5 6 7 8 6 6 5 3 3 4 7 9 10 9 7 6 8 5 4 4 12 12 12 12 8 7 7 6 7 7 5 4 2 2 2 2 3 4 5 3 3 3 3 2 1 2 2 4 7 8 7 4 4 5 3 3 4 5 5 2 3 4 7 8 7 8 7 4 3 6 7 7 6 6 5 5 5 5 5 6 5 4 4 4
13 12 8 4 4 5 6 6 6 5 5 4 4 6 8 9 9 9 6 6 10 7 3 5 9 9 8 8 7 7 9 9 10 8 4 2 3 4 3 3 3 3 4 2 3 4 4 3 2 1 2 4 6 10 11 7 3 2 1 4 6 3 3 7 7 6 8 7 5 5 4 5 6 7 7 7 6 6 5 4 4 5 5 6 6 5 4 4
Wind_Direction
6 5 2 359 356 355 353 351 353 350 348 345 341 338 333 331 328 328 326 323 323 321 319 318 316 318 322 329 330 329 328 322 318 286 245 235 233 258 280 276 280 278 271 259 235 239 250 235 223 223 228 230 148 102 211 195 131 105 131 149 166 196 202 185 176 200 145 153 125 75 62 96 127 255 263 331 312 167 141 176 159 125 131 126 126 134 138 142
5 3 360 357 355 353 352 350 348 345 342 339 337 334 329 328 325 324 322 320 321 319 319 318 317 323 326 332 334 333 335 327 308 276 250 241 255 265 267 278 280 265 251 234 225 229 237 245 230 219 220 202 124 116 198 157 129 164 185 155 183 186 171 195 193 190 149 133 117 98 127 133 148 291 334 53 284 201 157 158 119 109 117 118 129 138 139 143
3 1 359 356 353 351 348 344 342 339 337 336 333 331 329 328 326 325 322 319 318 316 316 316 318 326 330 335 338 342 342 327 295 268 255 238 236 248 259 271 270 250 236 224 225 237 255 285 289 264 243 230 138 128 193 148 172 213 167 217 213 156 141 202 225 106 96 95 107 96 23 331 293 351 5 152 225 256 117 116 112 116 123 128 137 139 144 150
0 359 358 354 351 346 342 339 337 336 335 334 331 331 330 328 326 323 320 318 317 316 314 314 323 327 334 338 341 350 342 315 278 189 190 205 226 242 255 259 249 234 228 226 237 258 273 286 292 286 272 269 137 131 188 167 181 218 182 200 177 143 136 172 81 69 59 51 93 90 53 341 325 352 331 307 192 206 115 120 123 130 135 136 141 145 152 153
1 360 357 352 347 342 338 336 334 334 334 332 331 330 330 328 328 326 323 321 319 318 313 315 326 328 337 340 348 358 349 343 117 148 169 197 231 244 246 240 226 222 221 229 252 268 271 269 271 271 253 265 166 146 191 182 183 218 191 143 138 153 110 74 61 69 68 68 86 79 94 86 342 347 320 330 178 181 137 134 133 136 138 140 146 151 156 154
2 360 357 350 344 340 337 335 334 334 333 333 332 332 332 332 332 332 331 328 326 321 317 321 326 331 338 341 11 23 3 350 152 163 196 225 251 249 219 210 210 212 208 229 258 264 267 258 252 254 237 247 221 196 197 190 190 197 137 119 120 107 84 12 348 40 53 67 88 120 60 24 1 336 314 307 230 221 301 139 137 137 139 146 151 153 161 158
1 359 357 351 344 340 338 336 335 334 334 334 334 334 335 336 336 336 334 332 331 326 323 324 323 336 341 353 38 25 260 275 213 151 218 246 252 237 185 192 202 200 196 230 252 253 259 253 243 244 250 246 236 238 216 197 185 156 105 112 91 73 90 220 244 39 55 64 13 80 62 30 341 319 330 296 270 284 304 165 137 135 143 150 154 159 166 160
359 358 356 352 346 342 338 337 335 334 335 334 334 335 336 337 336 334 334 332 332 332 331 326 335 348 352 14 24 279 230 221 188 121 233 225 193 183 176 181 185 188 206 236 251 258 263 262 254 246 263 269 275 282 259 208 137 119 115 115 94 82 134 185 125 56 64 89 351 39 43 86 237 320 321 278 274 289 302 182 136 137 150 154 159 165 167 166
357 356 355 353 348 343 338 335 334 333 333 334 334 334 336 336 334 333 333 331 335 337 335 340 350 353 0 8 278 292 215 167 161 119 213 167 148 169 181 178 179 187 220 244 250 258 262 272 272 280 308 299 303 306 304 12 78 111 123 115 106 122 157 113 81 62 76 105 47 63 20 7 338 331 287 260 271 303 311 173 140 146 155 158 168 167 168 171
355 354 354 353 349 343 338 334 332 331 332 333 333 333 335 335 332 332 331 333 340 338 342 4 1 359 7 342 272 302 170 158 149 131 118 123 153 205 227 201 202 205 226 248 253 259 261 271 282 297 306 305 308 297 304 0 115 117 117 111 115 133 134 108 102 102 137 76 38 120 195 284 330 355 250 260 295 341 321 169 146 152 159 164 170 163 171 166
353 352 352 352 349 343 337 334 331 329 330 331 331 332 333 333 330 329 329 335 344 343 352 13 2 8 8 313 272 291 267 178 165 148 134 165 188 215 241 219 217 223 235 249 254 259 260 267 283 298 290 324 330 301 318 338 98 114 112 103 111 125 126 128 127 142 157 71 35 85 58 319 338 13 236 291 358 359 328 197 152 156 163 167 162 156 169 157
352 351 350 350 348 343 337 333 329 327 328 328 330 330 331 331 327 325 327 333 345 348 359 16 11 18 5 282 221 243 283 261 194 169 160 200 210 220 237 231 228 236 253 263 264 271 278 280 279 297 293 311 327 318 333 326 333 118 118 104 107 113 114 133 136 159 171 97 109 84 55 297 263 239 267 8 6 357 335 288 160 159 166 161 149 149 157 158
351 350 349 348 346 343 337 332 329 325 325 326 327 328 330 330 323 321 326 330 343 346 350 6 14 29 16 278 233 240 282 263 187 199 205 215 229 228 225 235 241 249 265 273 284 294 304 303 287 280 297 300 315 317 308 302 295 175 126 109 118 78 79 157 136 150 145 125 138 118 151 235 223 241 288 24 5 5 340 298 168 160 165 151 139 146 158 164
350 349 348 346 344 341 337 332 329 324 322 323 325 326 327 328 322 319 320 318 332 341 342 351 19 58 82 268 282 289 284 266 197 223 235 226 236 234 220 222 233 245 259 263 276 290 297 303 300 272 272 277 278 294 291 286 280 200 109 89 123 98 223 211 146 148 137 144 158 158 228 232 213 234 294 24 19 21 336 302 177 159 163 146 136 151 163 160
350 349 347 345 342 340 336 332 327 322 320 320 322 323 324 326 320 317 316 308 317 331 331 319 268 179 289 280 278 280 274 251 226 225 227 226 233 229 209 204 214 231 248 258 266 281 285 293 304 282 256 257 254 266 276 273 269 207 133 96 168 155 195 190 182 179 153 159 173 181 229 252 221 234 298 357 23 24 328 306 214 165 160 141 137 162 168 150
351 349 347 344 342 339 335 331 325 321 318 317 320 320 322 323 317 313 309 298 301 312 321 315 225 194 280 305 248 205 168 200 230 225 212 229 255 256 191 186 205 220 230 247 252 263 271 276 274 260 272 272 267 262 273 277 268 237 140 143 177 168 177 165 204 203 147 146 179 206 195 244 238 231 252 290 36 13 317 309 266 176 157 138 141 171 165 146
354 350 347 344 341 338 334 330 324 319 316 316 319 319 320 318 310 307 301 298 303 289 275 291 285 210 256 292 270 168 189 198 222 226 213 225 264 290 230 193 201 209 215 232 242 243 254 259 214 240 254 249 268 260 270 275 256 184 110 161 181 165 159 163 187 182 148 143 176 205 206 228 191 185 224 272 51 352 301 310 294 189 151 135 151 174 159 148
355 351 349 345 341 337 332 329 324 319 316 315 318 319 317 310 303 304 300 297 326 291 271 276 291 276 254 258 243 199 164 195 213 216 222 209 225 267 269 244 218 196 205 219 232 227 223 227 191 237 256 220 237 232 227 238 207 146 158 184 170 157 155 164 175 170 161 152 156 162 177 159 130 150 202 179 102 280 284 300 316 263 155 143 160 175 153 151
354 352 350 346 341 337 331 328 324 319 316 312 316 319 314 303 295 302 284 210 179 296 281 228 191 198 264 236 215 138 88 116 215 207 228 194 188 242 254 254 253 205 209 208 207 203 192 207 204 231 255 228 224 220 227 240 218 177 189 208 167 154 155 160 161 160 157 147 141 140 116 115 130 163 190 172 175 226 274 290 337 319 203 151 163 181 152 153
351 350 349 346 342 337 331 327 322 319 317 313 322 328 318 309 310 309 210 212 224 238 260 242 202 227 276 231 148 125 109 171 218 224 227 187 175 224 228 236 245 208 228 232 204 195 185 197 218 219 228 232 231 220 230 270 255 172 191 247 171 139 137 150 150 165 166 146 124 129 113 118 138 170 190 177 187 210 262 282 324 315 288 129 177 184 151 154
348 348 347 346 343 337 331 325 320 317 313 313 324 334 302 319 344 346 325 253 236 230 245 252 241 248 301 300 194 165 146 186 222 217 191 177 206 224 203 206 217 212 230 230 220 198 184 204 232 229 229 233 236 225 225 312 355 126 222 275 173 135 146 158 154 169 178 145 118 135 119 122 145 166 189 178 188 217 224 247 305 0 47 238 236 179 152 174
347 347 344 344 342 339 332 321 315 311 306 306 313 280 261 295 328 348 345 291 271 256 241 238 245 237 179 274 275 234 202 198 221 206 159 175 215 207 194 193 203 225 227 221 213 183 187 222 238 238 246 251 267 303 336 22 16 355 311 302 8 133 141 155 159 168 184 135 128 151 127 136 169 171 185 180 190 232 222 215 1 42 81 212 273 42 169 208
346 344 342 343 340 339 333 318 311 302 294 292 281 252 270 294 351 357 342 282 286 285 256 224 237 236 182 206 259 201 226 220 208 183 156 173 219 215 221 220 223 236 228 220 210 173 208 241 232 209 24 9 10 2 350 350 348 308 291 310 288 157 148 157 171 172 191 153 140 151 116 129 165 152 172 184 183 214 271 22 53 57 57 31 300 269 210 208
345 343 343 341 337 339 333 318 306 292 294 289 273 273 284 299 357 1 333 266 278 278 262 226 222 244 174 138 154 179 246 248 197 160 153 166 245 237 231 236 243 255 233 210 205 212 247 268 286 55 40 22 12 345 318 317 319 279 268 271 252 195 161 158 171 170 171 136 143 136 87 99 167 140 178 190 96 58 27 10 11 31 35 26 354 320 272 248
343 342 342 340 337 337 331 321 302 304 319 294 271 279 290 302 351 355 332 274 269 262 250 225 204 248 95 134 165 189 242 236 119 146 165 181 237 257 279 266 247 277 262 201 182 220 244 313 15 27 6 337 229 265 264 256 272 270 262 250 252 250 158 154 162 156 130 128 171 150 99 292 195 148 173 62 52 29 20 356 328 339 13 45 34 4 353 337
342 340 341 341 338 335 334 330 307 324 324 294 293 322 337 352 353 344 339 253 270 235 200 187 150 177 177 173 193 212 237 223 100 132 178 202 238 246 299 296 221 252 281 206 150 240 219 39 41 33 316 290 233 244 232 205 211 253 283 284 276 276 187 158 156 160 151 170 195 183 123 90 128 92 24 29 92 2 1 350 310 314 319 72 76 48 11 347
340 338 339 339 338 340 337 301 313 327 312 290 329 344 349 358 347 333 344 252 264 193 168 156 143 188 186 174 204 231 221 177 99 133 211 209 234 230 234 274 268 239 266 70 27 276 206 181 138 154 263 259 243 234 212 201 198 244 326 343 343 341 352 127 138 185 196 126 176 208 123 88 125 117 291 221 146 257 306 317 308 311 310 9 94 153 235 199
337 336 337 334 337 338 321 301 316 319 283 293 321 333 340 343 333 329 1 267 259 167 168 160 136 173 187 166 187 255 161 179 176 204 199 175 181 231 241 263 295 289 270 109 145 252 217 173 119 144 239 230 271 281 145 176 207 37 5 345 343 0 3 30 84 288 350 83 151 209 139 81 251 241 284 202 152 218 242 247 269 277 287 291 130 188 254 249
333 334 333 329 332 332 322 313 303 288 304 316 316 314 324 327 320 340 2 259 206 167 168 121 117 162 212 162 167 235 215 192 219 212 171 163 177 186 267 268 292 295 291 81 242 250 147 81 97 290 267 160 319 327 56 28 308 15 2 318 309 329 321 334 353 350 22 59 215 211 164 124 261 274 296 231 187 199 204 207 223 233 239 236 172 192 233 260
330 331 329 327 327 327 325 307 288 301 336 336 325 307 306 313 316 115 259 245 167 190 159 98 136 178 207 196 186 230 220 183 209 205 164 189 187 176 244 261 270 289 293 277 256 241 173 131 140 258 292 81 304 293 318 276 266 301 318 286 302 299 279 323 337 64 40 324 246 235 183 136 135 256 220 225 232 176 173 196 204 206 212 222 212 192 211 226
327 326 325 322 317 311 308 289 277 319 342 339 337 317 299 306 294 213 256 225 195 208 163 146 161 168 191 204 205 226 202 167 183 202 181 208 193 187 235 253 249 289 291 277 258 241 192 145 153 220 245 241 243 273 245 237 251 215 200 241 314 304 248 304 341 68 146 256 240 227 132 102 104 226 199 214 229 167 168 200 204 206 208 212 216 198 204 212
323 322 320 314 306 289 269 261 275 303 320 334 339 320 299 306 218 235 242 277 267 188 191 193 161 166 192 197 217 222 187 163 173 186 200 197 195 208 212 208 200 217 262 262 248 245 200 151 169 186 189 239 235 279 256 232 257 231 191 194 175 326 194 177 306 225 208 248 233 181 99 79 61 134 160 185 188 159 160 175 187 205 207 195 203 199 194 207
322 321 317 308 297 279 265 269 282 297 319 324 319 303 291 260 234 233 231 268 238 164 253 225 152 158 213 210 223 211 175 168 174 182 203 199 199 213 204 209 226 207 212 254 253 247 191 155 175 168 145 176 208 251 274 236 247 230 205 184 155 174 213 196 233 226 235 256 217 108 90 91 107 99 149 162 131 99 94 52 61 174 220 192 191 189 182 199
322 322 320 310 295 278 271 273 270 272 309 305 294 254 250 235 245 248 239 257 235 184 182 155 134 131 242 253 250 170 138 175 186 195 204 200 223 226 201 205 224 219 188 299 303 252 183 176 188 161 145 194 208 193 126 277 256 241 236 183 130 182 216 211 223 231 281 274 78 67 74 141 184 196 204 119 96 88 97 82 53 202 250 218 197 186 177 190
325 324 320 306 288 279 273 265 244 215 264 284 257 223 234 227 245 249 246 270 268 197 132 96 101 180 217 251 252 179 149 170 203 226 202 192 252 263 194 168 149 60 22 358 317 306 321 168 133 120 155 202 228 159 45 303 292 290 298 65 82 269 232 198 241 343 286 51 58 34 45 113 158 211 351 71 79 77 102 115 72 321 294 256 202 150 130 179
328 328 321 292 276 278 274 241 203 189 221 241 210 229 227 239 254 255 275 306 340 353 68 91 161 246 221 229 232 189 161 171 195 219 206 203 245 281 56 79 85 89 31 27 302 324 0 329 151 129 170 188 110 33 303 290 299 315 351 21 285 286 351 96 329 333 6 84 46 8 72 92 81 29 14 9 70 79 92 88 52 8 356 20 33 39 30 5
330 329 314 274 267 259 243 200 176 183 211 207 212 240 239 251 257 261 285 320 333 298 287 45 181 214 217 219 203 168 157 186 166 160 244 220 226 248 107 74 48 334 21 28 311 341 12 301 259 220 190 121 81 340 283 302 5 10 326 308 307 329 23 75 33 330 27 84 49 17 62 70 339 16 348 355 24 33 34 36 28 15 8 7 19 25 15 9
326 320 292 279 267 226 205 175 168 182 200 205 234 257 257 259 262 273 295 314 308 281 240 253 235 190 248 273 218 167 163 183 164 174 223 184 237 301 103 92 74 336 357 357 312 343 349 324 257 212 192 169 162 9 290 272 240 196 250 281 315 356 347 9 65 344 66 93 96 82 71 12 0 334 321 13 21 18 30 33 22 19 8 352 9 12 356 360
318 305 286 280 196 175 175 164 170 190 199 206 233 244 250 264 269 278 283 281 290 298 267 276 259 200 237 276 261 176 163 176 187 192 204 132 274 296 71 98 131 95 341 341 32 313 321 11 283 272 185 155 156 71 330 268 238 201 232 269 251 196 340 331 154 142 106 111 125 123 115 349 330 282 307 26 34 25 48 67 56 33 3 326 353 343 322 347
305 283 289 159 142 152 160 162 177 202 210 218 236 242 250 269 270 269 267 258 261 310 341 300 286 238 269 289 293 220 174 198 210 192 160 168 196 260 212 137 119 114 318 81 106 286 285 101 268 294 350 99 155 208 196 8 41 195 219 287 303 24 41 12 338 25 43 100 120 119 121 278 246 255 302 23 71 61 84 120 122 124 202 256 295 320 336 0
284 285 259 144 140 149 153 163 205 197 220 240 241 250 255 267 276 275 277 274 266 211 265 282 287 308 316 307 319 327 225 213 219 240 190 168 153 102 242 156 99 90 328 85 97 349 0 111 285 311 334 352 327 305 29 19 25 51 32 27 29 58 77 48 345 337 20 66 103 123 130 258 258 212 295 332 70 99 271 133 109 105 115 284 351 32 18 17
250 292 255 148 146 155 156 179 227 190 225 244 232 251 258 260 272 274 278 279 266 223 260 274 278 282 278 292 322 322 310 283 235 240 63 89 94 83 83 74 74 77 47 20 23 23 21 140 321 317 310 315 304 306 25 14 2 24 16 348 23 61 96 92 18 314 15 37 58 103 110 264 264 176 179 301 19 79 292 321 80 71 7 334 2 52 55 42
256 302 297 215 160 166 186 217 219 208 227 243 242 252 256 255 263 265 273 277 249 176 209 260 283 271 252 295 312 309 329 320 280 130 92 90 92 91 79 60 32 38 50 9 357 14 4 346 334 317 302 297 292 285 90 64 17 18 332 303 336 71 127 117 134 152 54 31 53 89 95 252 231 185 159 170 170 158 281 335 66 73 14 351 359 27 54 50
310 284 292 258 179 183 233 229 231 235 220 235 243 246 251 255 259 261 269 274 251 184 180 215 270 273 262 307 300 305 334 323 320 17 94 102 105 113 99 87 43 49 72 39 7 27 351 346 338 331 340 335 322 328 30 42 2 280 221 271 257 210 146 96 79 70 51 9 44 91 140 222 173 165 152 153 147 117 34 1 57 79 50 16 11 23 40 38
298 246 265 233 190 196 245 237 258 262 239 242 240 241 248 248 249 253 260 279 285 295 342 222 233 252 270 280 263 280 295 276 302 301 232 124 135 163 127 115 100 83 93 87 62 84 165 0 350 25 36 352 331 305 293 305 298 275 325 326 313 5 80 87 81 70 59 355 30 94 154 158 139 148 142 137 132 119 117 67 72 86 79 50 30 28 33 30
312 283 276 235 187 203 243 246 262 268 272 278 268 266 268 262 259 252 249 274 299 301 307 291 249 233 239 273 263 260 275 278 283 264 231 140 138 164 120 109 104 97 98 86 69 63 73 43 330 291 227 214 224 238 251 260 270 292 335 329 343 27 49 92 101 101 160 124 51 112 151 147 153 155 138 126 121 115 114 86 65 73 77 63 47 36 33 34
303 286 296 330 201 220 233 234 239 246 256 267 277 286 281 280 287 271 227 202 234 282 284 285 280 255 212 230 263 245 232 267 290 299 289 70 91 96 106 105 107 113 114 107 106 100 88 101 283 280 268 250 241 243 252 261 274 310 341 339 352 7 6 49 95 121 146 114 68 177 147 140 155 151 135 137 127 106 97 86 73 73 76 65 49 40 36 38
271 279 331 355 327 272 281 271 259 249 240 234 241 265 269 272 284 294 260 186 158 263 281 276 286 281 246 220 232 220 188 226 271 286 304 16 111 134 135 110 122 145 131 98 128 119 104 206 251 276 284 283 275 272 277 277 282 305 317 321 325 326 335 6 50 58 93 112 147 175 131 127 144 136 123 128 116 103 102 102 96 87 82 75 54 38 32 36
301 310 339 346 328 311 309 304 310 304 270 249 251 255 260 267 272 283 288 251 159 199 239 272 283 287 278 258 245 230 168 181 229 244 267 270 166 137 109 102 140 166 136 120 153 117 110 220 246 268 287 298 300 295 282 272 284 319 298 303 330 340 333 328 23 78 94 115 137 127 107 99 121 126 120 114 105 106 113 108 101 96 92 89 74 47 33 28
334 341 336 331 319 312 311 311 323 323 302 301 312 281 281 281 274 277 286 298 247 193 182 264 281 284 283 278 278 282 250 215 232 230 230 240 229 108 110 135 159 179 170 167 148 106 126 201 239 262 287 292 286 287 275 243 241 274 269 279 288 253 287 309 30 87 93 105 123 120 110 94 91 116 120 117 103 102 106 102 96 96 99 100 94 71 46 33
341 341 335 316 305 322 326 316 314 311 305 306 286 281 286 280 280 294 304 298 286 253 156 246 276 276 272 272 282 283 271 261 252 247 233 219 198 110 125 149 143 171 197 188 129 124 160 182 277 322 316 276 271 291 297 249 237 248 247 316 304 237 209 151 84 95 106 121 126 111 110 130 139 123 118 114 108 106 110 115 104 94 98 101 96 77 45 33
344 340 338 318 297 320 320 306 304 301 288 273 264 265 264 269 287 303 305 297 288 289 17 357 311 299 281 276 287 289 279 261 242 241 244 202 164 147 164 232 259 217 198 167 118 145 180 171 129 86 327 294 304 313 296 258 224 246 159 48 12 346 122 108 95 76 77 98 116 103 115 146 142 129 120 115 119 121 123 125 115 105 101 99 102 103 84 55